Previsão horária em Allariz

Hoje, 25 Janeiro, Segunda-feira

Tempo Temperatura Precipitação Vento Pressão Humidade
00:00 +8°C° 1.3 mm 2 m/s 707 mmHg 97%
01:00 +9°C° 1.3 mm 2 m/s 706 mmHg 97%
02:00 +9°C° 1.3 mm 3 m/s 706 mmHg 98%
03:00 +9°C° 1 mm 2 m/s 706 mmHg 98%
04:00 +10°C° 1 mm 2 m/s 706 mmHg 98%
05:00 +10°C° 1 mm 2 m/s 705 mmHg 98%
06:00 +5°C° 0 mm 1 m/s 712 mmHg 95%
07:00 +5°C° 0 mm 1 m/s 712 mmHg 94%
08:00 +6°C° 0 mm 1 m/s 712 mmHg 94%
09:00 +7°C° 0 mm 1 m/s 712 mmHg 92%
10:00 +8°C° 0 mm 1 m/s 713 mmHg 89%
11:00 +9°C° 0 mm 1 m/s 713 mmHg 87%
12:00 +9°C° 0.1 mm 1 m/s 713 mmHg 89%
13:00 +9°C° 0.1 mm 1 m/s 712 mmHg 90%
14:00 +8°C° 0.1 mm 1 m/s 712 mmHg 92%
15:00 +8°C° 0.2 mm 1 m/s 712 mmHg 93%
16:00 +8°C° 0.2 mm 1 m/s 712 mmHg 94%
17:00 +8°C° 0.2 mm 1 m/s 713 mmHg 96%
18:00 +8°C° 0 mm 1 m/s 713 mmHg 96%
19:00 +8°C° 0 mm 1 m/s 713 mmHg 95%
20:00 +8°C° 0 mm 1 m/s 714 mmHg 95%
21:00 +8°C° 0 mm 1 m/s 714 mmHg 95%
22:00 +8°C° 0 mm 1 m/s 714 mmHg 95%
23:00 +8°C° 0 mm 1 m/s 714 mmHg 95%

Amanhã, 26 Janeiro, Terça-feira

Tempo Temperatura Precipitação Vento Pressão Humidade
00:00 +9°C° 0 mm 1 m/s 714 mmHg 96%
01:00 +9°C° 0 mm 1 m/s 714 mmHg 96%
02:00 +9°C° 0 mm 1 m/s 714 mmHg 96%
03:00 +8°C° 0.1 mm 2 m/s 714 mmHg 97%
04:00 +8°C° 0.1 mm 2 m/s 714 mmHg 97%
05:00 +8°C° 0.1 mm 2 m/s 713 mmHg 97%
06:00 +9°C° 0.5 mm 2 m/s 714 mmHg 97%
07:00 +9°C° 0.5 mm 2 m/s 714 mmHg 97%
08:00 +9°C° 0.5 mm 2 m/s 715 mmHg 98%
09:00 +10°C° 1 mm 2 m/s 715 mmHg 98%
10:00 +11°C° 1 mm 1 m/s 715 mmHg 98%
11:00 +11°C° 1 mm 1 m/s 716 mmHg 98%
12:00 +11°C° 0.5 mm 1 m/s 716 mmHg 98%
13:00 +12°C° 0.5 mm 1 m/s 716 mmHg 97%
14:00 +12°C° 0.5 mm 1 m/s 716 mmHg 97%
15:00 +11°C° 0 mm 0 m/s 716 mmHg 98%
16:00 +11°C° 0 mm 0 m/s 716 mmHg 98%
17:00 +11°C° 0 mm 0 m/s 717 mmHg 98%
18:00 +11°C° 0 mm 0 m/s 717 mmHg 98%
19:00 +10°C° 0 mm 0 m/s 718 mmHg 97%
20:00 +10°C° 0 mm 0 m/s 718 mmHg 97%
21:00 +10°C° 0 mm 0 m/s 718 mmHg 97%
22:00 +10°C° 0 mm 0 m/s 718 mmHg 97%
23:00 +9°C° 0 mm 0 m/s 718 mmHg 97%

Depois de amanhã, 27 Janeiro, Quarta-feira

Tempo Temperatura Precipitação Vento Pressão Humidade
00:00 +10°C° 0 mm 0 m/s 718 mmHg 97%
01:00 +10°C° 0 mm 0 m/s 718 mmHg 97%
02:00 +11°C° 0 mm 1 m/s 718 mmHg 97%
03:00 +11°C° 0 mm 1 m/s 717 mmHg 97%
04:00 +11°C° 0 mm 1 m/s 717 mmHg 97%
05:00 +11°C° 0 mm 1 m/s 717 mmHg 97%
06:00 +11°C° 0 mm 1 m/s 718 mmHg 96%
07:00 +12°C° 0 mm 1 m/s 718 mmHg 96%
08:00 +12°C° 0 mm 1 m/s 718 mmHg 96%
09:00 +13°C° 0 mm 1 m/s 718 mmHg 94%
10:00 +14°C° 0 mm 1 m/s 718 mmHg 92%
11:00 +15°C° 0 mm 1 m/s 719 mmHg 89%
12:00 +15°C° 0 mm 2 m/s 718 mmHg 89%
13:00 +15°C° 0 mm 2 m/s 718 mmHg 89%
14:00 +15°C° 0 mm 2 m/s 717 mmHg 89%
15:00 +15°C° 0.1 mm 2 m/s 717 mmHg 91%
16:00 +14°C° 0.1 mm 2 m/s 717 mmHg 93%
17:00 +13°C° 0.1 mm 2 m/s 717 mmHg 95%
18:00 +13°C° 0 mm 2 m/s 717 mmHg 95%
19:00 +13°C° 0 mm 2 m/s 718 mmHg 95%
20:00 +13°C° 0 mm 2 m/s 718 mmHg 95%
21:00 +13°C° 0.1 mm 2 m/s 718 mmHg 95%
22:00 +13°C° 0.1 mm 2 m/s 718 mmHg 96%
23:00 +13°C° 0.1 mm 2 m/s 718 mmHg 96%

28 Janeiro, Quinta-feira

Tempo Temperatura Precipitação Vento Pressão Humidade
00:00 +12°C° 0.1 mm 2 m/s 718 mmHg 96%
01:00 +12°C° 0.1 mm 2 m/s 718 mmHg 97%
02:00 +12°C° 0.1 mm 2 m/s 717 mmHg 97%
03:00 +12°C° 0.1 mm 2 m/s 717 mmHg 97%
04:00 +12°C° 0.1 mm 2 m/s 717 mmHg 96%
05:00 +12°C° 0.1 mm 2 m/s 717 mmHg 96%
06:00 +12°C° 0.1 mm 2 m/s 718 mmHg 96%
07:00 +12°C° 0.1 mm 2 m/s 718 mmHg 96%
08:00 +12°C° 0.1 mm 2 m/s 718 mmHg 96%
09:00 +13°C° 0.1 mm 2 m/s 718 mmHg 93%
10:00 +14°C° 0.1 mm 2 m/s 719 mmHg 89%
11:00 +14°C° 0.1 mm 3 m/s 719 mmHg 86%
12:00 +14°C° 0.1 mm 2 m/s 719 mmHg 87%
13:00 +14°C° 0.1 mm 2 m/s 718 mmHg 87%
14:00 +14°C° 0.1 mm 2 m/s 718 mmHg 88%
15:00 +14°C° 0 mm 2 m/s 718 mmHg 90%
16:00 +13°C° 0 mm 2 m/s 718 mmHg 93%
17:00 +12°C° 0 mm 2 m/s 718 mmHg 95%

29 Janeiro, Sexta-feira

Tempo Temperatura Precipitação Vento Pressão Humidade

30 Janeiro, Sábado

Tempo Temperatura Precipitação Vento Pressão Humidade
Mostrar mais

Necessitamos do seu Consentimento

A Meteoprog e os seus Fornecedores de Serviços podem armazenar e aceder a dados pessoais como cookies, identificadores do dispositivo ou outras tecnologias semelhantes existentes no seu dispositivo e processar estes dados para personalizar conteúdos e anúncios, assim como funcionalidades nas redes sociais e análise de tráfego.

  • Armazenar e/ou aceder a informações no seu dispositivo

    Os cookies, identificadores do dispositivo ou outras informações podem ser armazenados ou acedidos no seu dispositivo, para os fins acima indicados.

  • Anúncios e conteúdos personalizados, medição de anúncios e conteúdos, dados sobre o público-alvo e desenvolvimento de produtos

    Os anúncios e os conteúdos podem ser personalizados com base num perfil. Podem ser adicionados dados adicionais para uma maior personalização dos anúncios e dos conteúdos. A eficácia dos anúncios e dos conteúdos pode ser medida. Podem ser obtidas informações sobre o público que visualizou os anúncios e os conteúdos. Estes dados podem ser usados para desenvolver ou melhorar sistemas, softwares ou a experiência do utilizador.

Ao clicar em "Eu concordo”, permitirá o uso de cookies, identificadores do dispositivo e web beacons mencionados ou outras tecnologias semelhantes. As configurações do navegador do seu dispositivo podem ser alteradas.

Para certos fins, podem ser invocados interesses legítimos ao invés de consentimento. Pode ler mais informação sobre este assunto na nossa Política de Privacidade e Cookies.